GEFSNGP_con_probscp_300.txt.gz
Probability
0 0 0 0 0 1 1 1 1 1 1 2 3 3 1 1 2 1 1 3 4 4 7 10 13 16 17 19 21 23 24 24 25 26 26 25 22 19 20 19 14 10 9 7
0 0 0 0 2 3 3 3 2 2 3 3 3 2 1 1 2 2 1 2 3 4 6 11 14 18 21 22 23 24 25 25 27 27 26 24 21 19 19 17 13 10 8 6
0 0 1 2 4 5 5 4 4 3 4 4 3 1 0 1 1 1 0 1 3 5 7 10 15 20 24 25 25 25 25 27 29 29 25 22 18 18 18 16 12 10 8 7
1 1 2 5 5 4 4 4 3 3 4 5 4 1 0 0 0 0 0 0 2 4 7 9 13 20 24 25 25 25 25 27 30 28 25 21 18 16 16 15 13 11 9 8
4 2 3 5 5 3 3 4 2 2 3 5 5 3 1 0 0 0 1 1 1 3 6 9 12 18 23 24 24 23 23 26 27 27 25 22 18 17 17 16 14 12 10 8
7 5 5 5 4 2 3 4 2 1 2 4 5 4 2 2 2 1 2 3 3 5 7 9 12 17 22 23 23 22 22 23 25 25 23 18 16 19 19 17 15 13 11 10
8 7 7 7 5 4 4 4 2 1 2 3 4 4 4 4 4 4 5 7 8 9 10 11 13 17 20 22 24 23 21 21 23 22 18 15 17 21 21 18 15 13 11 10
8 7 6 5 5 5 4 3 2 2 3 3 4 4 5 6 6 7 8 11 12 13 14 13 14 17 18 20 23 23 20 19 20 21 18 16 20 23 22 19 15 11 9 7
5 4 3 2 2 2 2 1 1 2 2 2 3 3 5 7 8 9 10 12 13 14 15 15 16 17 17 19 22 22 20 18 19 22 21 19 18 20 19 17 12 8 6 6
2 1 0 0 0 0 0 0 0 1 1 1 1 2 4 6 8 9 9 10 11 12 14 16 17 16 16 18 20 21 20 18 19 21 22 18 15 14 14 12 9 7 7 7
0 0 0 0 0 0 0 0 0 0 0 0 1 2 4 5 6 6 5 6 7 7 10 13 15 14 15 18 20 19 18 18 18 19 19 15 12 10 8 7 7 6 6 6
1 1 1 0 0 0 0 0 0 0 0 0 1 2 3 4 4 3 3 2 2 2 5 8 10 10 13 17 18 18 17 17 17 17 16 12 9 7 5 3 3 3 3 2
2 2 1 0 0 0 0 0 0 0 0 0 1 1 1 2 2 2 2 1 0 0 1 3 5 7 9 12 14 15 15 15 15 15 14 11 6 5 4 2 0 0 0 0
2 1 1 0 0 0 0 0 0 0 0 0 0 0 0 1 1 1 1 1 0 0 0 1 2 5 7 8 9 11 12 12 13 14 14 10 7 6 5 2 0 0 0 0
1 1 1 0 0 0 0 0 0 0 0 0 0 0 0 0 0 0 0 0 1 1 1 1 2 4 6 7 7 9 10 10 11 14 12 9 7 5 3 1 0 0 1 1
0 0 0 0 0 0 0 0 0 0 0 0 0 0 0 0 0 0 1 1 2 3 3 3 3 4 6 6 7 8 8 7 8 10 9 7 5 4 2 0 0 0 0 0
0 0 0 0 0 0 0 0 0 0 0 0 0 0 0 0 1 1 2 3 3 3 3 3 3 2 4 5 6 7 5 4 5 6 6 4 4 4 2 1 0 0 0 0
0 0 0 0 0 0 0 0 0 0 0 0 0 0 0 1 2 3 3 3 3 2 2 3 2 1 2 3 4 4 3 3 4 6 5 3 3 3 3 1 0 0 0 0
0 0 0 0 0 0 0 0 0 0 0 0 0 0 1 2 3 3 3 2 1 1 2 1 1 0 1 2 3 2 1 2 4 6 5 3 2 2 2 1 0 0 0 0
0 0 0 0 0 0 0 0 0 0 0 0 1 1 2 3 3 2 1 1 0 1 1 1 0 0 1 2 2 1 1 1 4 5 5 4 3 2 1 2 1 1 0 0
0 0 0 0 0 0 0 0 0 0 1 1 2 2 2 2 2 1 0 0 0 0 0 0 0 0 1 1 1 0 0 1 3 4 4 4 4 3 3 3 3 2 1 0
0 0 0 0 0 0 1 1 0 1 2 2 2 2 1 1 1 0 0 0 0 0 0 0 0 0 0 0 0 0 0 1 2 3 3 3 4 4 5 5 5 4 2 1
0 0 0 0 0 0 1 2 2 2 2 1 1 1 0 0 0 0 0 0 0 0 0 0 0 0 0 0 0 0 0 1 2 3 3 3 3 4 4 5 5 4 3 2
0 0 0 0 0 0 1 2 2 1 1 0 0 0 0 0 0 0 0 0 0 0 0 0 0 0 0 0 0 0 0 1 3 3 3 3 3 3 3 4 5 4 3 3
0 0 1 1 1 1 1 1 1 0 0 0 0 0 0 0 0 0 0 0 0 0 0 0 0 0 0 0 0 0 1 2 3 3 3 3 3 3 3 3 4 4 4 5
0 1 2 1 1 0 0 0 0 0 0 0 0 0 0 0 0 0 0 0 0 0 0 0 0 0 0 0 0 0 1 2 3 3 3 3 3 3 3 3 3 4 4 5
1 2 2 1 0 0 0 0 0 0 0 0 0 0 0 0 0 0 0 0 0 0 0 0 0 0 0 0 0 0 1 2 3 3 3 3 3 3 3 3 3 4 4 3

GEFSNGP_con_probscp_306.txt.gz
Probability
2 2 1 0 1 1 3 6 9 11 9 7 8 10 11 12 10 8 9 12 17 21 24 25 28 30 31 33 35 35 34 34 35 37 37 37 37 38 39 35 30 27 25 24
1 1 0 0 1 2 3 6 10 12 10 8 8 10 11 11 10 8 9 11 15 19 23 25 27 28 29 31 32 33 34 34 35 36 36 36 36 37 38 37 33 30 28 26
2 1 0 1 3 3 3 6 10 11 8 7 8 9 10 10 10 9 9 12 16 20 23 25 26 26 27 29 30 31 32 32 34 35 35 35 34 35 38 39 37 34 31 29
4 3 1 3 4 4 4 6 8 9 7 7 8 9 10 12 12 11 12 15 18 21 22 24 25 25 26 28 28 27 28 30 33 35 35 34 33 33 37 40 38 33 30 28
6 4 2 3 4 5 6 9 10 9 8 7 7 8 12 15 14 13 15 18 19 19 20 22 23 24 25 25 24 23 24 27 31 34 34 33 33 33 35 37 33 27 24 23
7 4 3 5 6 6 8 10 11 12 12 11 10 11 14 16 15 16 18 20 19 18 19 21 21 22 23 23 22 22 23 25 30 32 32 33 33 33 33 32 27 22 20 19
5 5 5 7 8 9 11 12 11 12 15 18 18 18 17 17 17 19 21 21 20 20 21 22 22 22 23 22 21 22 23 26 29 31 31 32 32 32 31 28 24 21 19 17
6 7 9 10 12 14 17 17 12 11 13 18 20 19 18 18 19 20 20 20 20 21 22 23 23 23 23 22 21 22 24 26 28 29 28 28 29 29 28 25 22 20 17 16
7 10 12 13 14 16 17 16 12 9 10 12 14 14 14 15 17 18 17 18 19 21 22 23 23 24 24 23 23 23 24 26 26 25 24 24 25 25 25 22 19 16 13 12
7 8 11 12 11 10 10 10 9 8 8 9 10 10 10 11 14 14 15 17 18 19 21 22 23 23 23 23 24 24 25 25 26 24 22 22 22 23 23 21 18 15 11 9
3 4 6 6 5 3 3 4 5 6 7 8 7 7 7 10 11 11 12 14 17 17 18 19 20 21 21 22 23 25 25 24 23 22 21 21 20 19 18 16 14 12 9 7
1 2 2 3 2 1 1 2 2 4 4 4 4 4 5 8 10 10 9 10 12 13 13 14 15 17 18 19 20 22 23 21 18 18 19 20 19 16 11 8 6 5 4 3
1 2 3 3 3 2 2 2 3 3 2 1 1 1 3 6 8 7 6 5 6 8 8 9 11 12 15 17 18 19 20 18 15 14 16 18 20 17 10 5 2 1 1 1
3 3 3 3 3 3 3 3 3 2 1 0 0 2 3 5 5 5 4 3 4 6 6 7 9 10 13 15 17 17 17 15 14 12 13 15 17 16 12 7 4 2 1 1
3 3 3 3 3 3 3 3 2 1 0 0 1 3 4 5 5 5 4 4 5 6 6 7 9 10 12 14 15 15 14 14 13 11 10 10 11 10 8 6 5 4 4 3
3 3 3 3 3 3 3 2 1 0 0 0 0 1 2 4 5 5 6 7 7 7 7 7 9 10 12 13 13 12 12 12 10 8 8 8 7 4 3 3 3 4 5 4
3 3 3 3 3 3 2 1 0 0 0 0 0 0 1 3 4 4 5 6 7 6 5 6 9 10 10 11 10 10 10 9 7 6 7 7 6 3 2 2 3 4 4 4
3 3 3 3 3 3 1 0 0 0 0 0 0 0 1 2 3 3 4 5 5 4 3 4 7 8 8 8 7 6 7 6 6 6 6 6 5 3 3 4 4 3 3 2
3 3 3 3 3 2 1 0 0 0 0 0 0 0 1 2 3 3 3 4 4 3 1 2 4 6 7 5 4 4 4 4 5 6 5 4 3 2 2 3 3 1 1 1
2 2 2 2 1 1 0 0 0 0 0 0 0 1 2 3 3 3 3 3 3 2 1 2 3 3 4 3 2 2 3 3 4 4 3 1 1 1 0 1 1 0 0 0
1 1 1 1 0 0 1 1 0 0 0 0 0 1 2 3 3 3 1 1 1 1 1 1 2 1 1 1 1 1 1 2 3 3 1 0 0 0 0 0 0 0 0 0
0 0 0 0 0 0 1 2 1 0 0 0 1 2 3 3 3 2 1 0 0 1 1 0 0 0 0 0 0 0 0 1 2 2 1 0 0 0 0 0 0 0 0 0
0 0 0 0 0 0 1 2 2 1 0 1 2 3 3 2 1 1 0 0 0 0 0 0 0 0 0 0 0 0 0 1 2 2 0 0 0 0 0 1 1 0 0 0
0 0 0 0 0 0 0 1 2 3 2 2 3 3 2 1 0 0 0 0 0 0 0 0 0 0 0 0 0 0 0 1 2 2 1 0 0 0 1 2 1 0 0 0
0 0 0 0 0 0 0 0 2 4 4 3 3 2 1 0 0 0 0 0 0 0 0 0 0 0 0 0 0 0 0 1 2 2 1 0 1 1 2 2 1 0 0 0
0 0 0 0 0 0 0 1 2 4 4 3 2 2 1 0 0 0 0 0 0 0 0 0 0 0 0 0 0 0 1 1 1 1 1 1 2 2 2 1 1 0 0 1
0 0 0 0 0 0 0 1 2 3 3 3 2 2 2 1 0 0 0 0 0 0 0 0 0 0 0 0 0 0 1 2 1 1 2 2 2 2 1 1 1 0 1 1

GEFSNGP_con_probscp_312.txt.gz
Probability
0 1 2 3 3 3 2 1 0 1 1 1 0 1 1 1 1 2 2 4 6 7 9 10 11 12 12 13 14 13 12 12 11 8 6 4 4 7 8 8 7 6 5 5
0 1 3 4 4 4 4 2 1 1 1 1 2 3 2 2 1 1 1 3 5 7 9 10 11 12 13 14 15 14 11 10 10 10 8 6 5 8 8 7 6 6 6 6
0 1 2 3 3 4 5 3 2 1 1 2 4 4 3 2 2 2 2 3 4 5 8 10 11 13 15 17 18 16 12 10 11 12 11 8 7 8 7 6 5 5 6 6
0 0 1 1 2 3 4 2 1 1 1 3 4 4 3 3 3 4 4 4 4 4 6 8 10 13 17 20 20 18 15 13 13 14 13 12 10 8 6 5 5 5 6 6
0 0 0 0 1 2 2 1 0 0 0 1 3 3 3 3 4 4 4 4 5 5 6 8 11 15 18 20 19 16 15 15 15 15 15 13 12 10 8 6 6 6 6 6
0 0 0 0 1 1 1 0 0 0 0 0 1 3 4 4 5 5 5 6 6 6 7 9 12 16 19 19 17 14 13 14 14 15 14 12 11 11 10 9 9 8 7 6
0 0 0 1 2 1 0 0 0 1 1 1 2 4 5 6 7 7 8 8 8 8 9 11 13 16 19 19 17 14 12 12 13 12 12 11 9 10 10 10 10 9 7 6
0 0 0 1 1 1 0 0 1 2 2 3 4 5 6 7 7 9 10 10 10 10 11 11 12 14 16 17 16 14 12 12 11 10 9 9 9 10 10 10 10 9 7 6
0 0 0 0 1 1 0 0 1 2 3 3 4 5 6 6 7 9 10 12 12 12 12 13 12 12 13 14 13 12 11 10 9 7 6 7 9 11 11 10 10 9 7 6
0 0 0 1 2 2 1 1 1 3 3 3 3 3 4 5 6 7 9 10 11 12 12 13 12 12 12 13 13 11 10 8 7 5 4 5 8 10 9 9 10 9 8 7
0 0 0 1 2 2 2 2 2 3 5 4 3 2 2 3 5 6 7 8 9 10 10 12 13 13 13 14 14 13 11 8 7 5 4 5 5 5 5 6 7 7 7 8
0 0 0 1 1 1 1 2 2 3 5 6 5 4 3 3 4 6 6 7 7 8 8 10 11 12 12 14 15 14 11 9 8 6 6 5 3 1 1 2 3 3 4 5
0 0 0 0 0 0 1 1 1 2 3 5 5 4 4 3 3 5 6 7 7 6 6 7 7 9 10 11 12 11 10 8 7 7 6 6 4 2 1 0 0 0 1 1
0 0 0 0 0 1 1 0 0 1 1 2 3 4 4 3 2 4 5 6 5 4 4 4 4 5 7 8 9 9 8 7 7 7 6 6 4 3 1 0 0 0 0 0
0 0 1 1 1 2 1 0 0 0 0 0 1 3 3 1 1 3 4 4 4 3 3 3 3 4 6 7 7 7 7 7 7 7 6 5 3 2 1 0 0 0 0 0
0 1 2 2 2 2 1 0 0 0 0 0 0 1 1 0 1 2 3 3 3 3 3 3 3 4 6 6 6 6 6 5 5 5 4 3 2 1 0 0 0 0 0 0
0 1 2 3 2 1 0 0 0 0 0 0 0 0 0 0 1 2 3 3 3 3 2 2 3 4 6 6 6 5 4 3 2 2 1 1 1 0 0 0 0 0 0 0
1 2 2 1 1 0 0 0 0 0 0 0 0 0 0 0 1 2 3 2 2 1 1 1 2 4 5 5 5 4 3 1 0 0 0 0 0 0 0 0 0 0 0 0
2 2 1 0 0 0 0 0 0 0 0 0 0 0 0 0 1 2 1 1 1 0 0 0 1 3 4 4 4 3 2 1 0 0 0 0 0 0 0 0 0 0 0 0
1 1 0 0 0 0 0 0 0 0 0 0 0 0 0 0 1 1 0 0 0 0 0 1 2 3 3 3 3 3 2 1 0 0 0 0 0 0 0 0 0 0 0 0
0 0 0 0 0 0 0 0 0 0 0 0 0 0 0 0 0 0 0 0 0 0 0 1 2 3 2 2 2 2 1 0 0 0 0 0 0 0 0 0 0 0 0 0
0 0 0 0 0 0 0 0 0 0 0 0 0 0 0 0 0 0 0 0 0 0 0 1 1 1 1 1 1 1 0 0 0 0 0 0 0 0 0 0 1 1 0 0
0 0 0 0 0 0 0 0 0 0 0 0 0 0 0 0 0 0 0 0 0 0 0 0 0 0 0 0 0 0 0 0 0 0 0 0 0 0 0 1 2 1 0 0
0 0 0 0 0 0 0 0 0 0 0 0 0 0 0 0 0 0 0 0 0 0 0 0 0 0 0 0 0 0 0 0 0 0 0 0 0 1 1 2 2 1 0 0
0 0 0 0 0 0 0 0 0 0 0 0 0 0 0 0 0 0 0 0 0 0 0 0 0 0 0 0 0 0 0 0 0 0 0 0 1 2 2 1 1 0 0 0
0 0 0 0 0 0 0 0 0 0 0 0 0 0 0 0 0 0 0 0 0 0 0 0 0 0 0 0 0 0 0 0 0 0 0 0 1 1 1 0 0 0 0 0
0 0 0 0 0 0 0 0 0 0 0 0 0 0 0 0 0 0 0 0 0 0 0 0 0 0 0 0 0 0 0 0 0 0 0 0 0 1 0 0 0 0 0 0

GEFSNGP_con_probscp_318.txt.gz
Probability
0 0 1 1 1 1 1 1 1 1 2 3 3 2 2 2 2 3 4 4 3 4 5 5 4 2 1 1 3 5 6 6 5 3 3 5 6 5 2 1 0 1 2 3
0 1 2 2 2 2 2 2 2 2 3 3 2 1 1 1 1 1 3 3 3 3 4 3 3 2 1 2 3 4 5 5 5 4 3 4 4 4 2 1 1 1 2 3
1 2 2 2 2 2 1 1 2 2 2 2 1 0 0 0 0 0 1 2 2 2 2 1 1 2 3 4 4 3 4 4 4 5 4 3 2 2 2 2 2 1 2 3
2 2 1 1 0 0 0 0 1 1 1 1 0 0 0 0 0 0 0 1 1 1 1 1 1 4 6 6 5 4 4 4 5 6 5 3 1 1 2 3 2 1 1 2
1 1 0 0 0 0 0 0 0 0 0 0 0 0 0 0 0 0 0 0 0 0 1 2 4 7 9 9 7 6 6 6 7 7 6 3 1 0 1 2 2 1 0 1
0 0 0 0 0 0 0 0 0 0 0 0 0 0 0 0 1 1 1 1 1 1 2 4 7 9 10 11 11 9 9 9 10 10 8 4 1 0 0 1 1 1 0 0
0 0 0 0 0 0 0 0 0 0 0 0 0 0 0 0 1 2 3 2 2 2 3 5 7 8 10 12 12 11 11 12 12 12 9 4 1 1 1 1 1 1 1 1
0 0 0 1 1 1 1 0 0 0 0 0 0 1 1 0 1 2 3 3 3 3 4 5 6 8 10 12 12 12 12 12 13 12 8 5 3 2 2 2 2 2 3 4
0 0 0 1 2 3 2 1 0 0 0 0 1 2 2 1 0 1 2 2 2 3 3 5 6 8 9 10 12 12 12 12 12 11 9 6 4 3 3 3 3 3 4 6
0 0 1 2 2 2 2 2 1 0 0 0 1 2 2 2 1 0 1 1 1 1 2 3 4 6 8 9 10 11 11 11 11 11 9 7 5 4 4 3 3 3 4 5
0 0 1 1 1 1 1 2 2 1 1 0 1 2 2 2 1 0 0 0 0 0 1 1 2 5 7 8 9 10 10 10 9 8 7 6 6 5 4 3 2 2 3 3
0 0 0 0 0 0 0 2 3 2 1 1 2 2 3 2 1 0 0 0 0 1 1 1 2 5 7 8 8 9 9 8 7 6 5 5 5 5 3 1 1 1 1 2
0 0 0 0 0 0 0 1 2 2 1 1 2 2 3 3 1 0 0 0 1 2 3 4 5 6 6 6 6 6 6 5 5 5 5 5 4 4 2 1 1 0 0 1
0 0 0 0 0 0 0 1 1 1 1 1 2 2 3 3 2 1 1 1 2 5 6 6 6 6 6 5 4 4 4 3 4 5 6 5 4 4 3 3 2 1 0 0
0 0 0 0 0 0 0 0 0 1 2 2 3 3 3 3 2 2 2 3 4 5 6 6 6 6 5 4 3 3 4 3 3 4 5 4 4 3 3 3 2 1 0 0
0 0 0 0 0 0 0 0 0 1 2 2 2 2 2 2 1 1 1 3 4 4 4 4 4 4 4 3 3 4 4 4 3 3 4 3 3 3 3 2 1 0 0 0
0 0 0 0 0 0 0 0 0 0 1 1 1 1 1 1 0 0 1 2 3 3 3 3 3 3 3 3 3 4 5 4 3 3 3 3 2 2 1 1 0 0 0 0
0 0 0 0 0 0 0 0 0 0 0 0 0 0 0 0 0 0 0 1 1 2 3 3 3 3 3 2 3 4 4 3 2 2 2 1 1 1 0 0 0 0 0 0
0 0 0 0 0 0 0 0 0 0 0 0 0 0 0 0 0 0 0 0 0 1 2 2 2 2 1 1 1 1 1 1 1 1 1 0 0 0 0 0 0 0 0 0
0 0 0 0 0 0 0 0 0 0 0 0 0 0 0 0 0 0 0 0 0 0 1 1 0 0 0 0 0 0 0 0 0 0 0 0 0 0 0 0 0 0 0 0
0 0 0 0 0 0 0 0 0 0 0 0 0 0 0 0 0 0 0 0 0 0 0 0 0 0 0 0 0 0 0 0 0 0 0 0 0 0 0 0 0 0 0 0
0 0 0 0 0 0 0 0 0 0 0 0 0 0 0 0 0 0 0 0 0 0 0 0 0 0 0 0 1 1 1 0 0 0 0 0 0 0 0 0 0 0 0 0
0 0 0 0 0 0 0 0 0 0 0 0 0 0 0 0 0 0 0 0 0 0 0 0 0 0 0 0 1 1 1 1 1 1 1 0 0 0 0 0 0 0 0 0
0 0 0 0 0 0 0 0 0 0 0 0 0 0 0 0 0 0 0 0 0 0 0 0 0 0 0 0 0 1 1 2 2 2 1 0 0 0 0 0 0 0 0 0
0 0 0 0 0 0 0 0 0 0 0 0 0 0 0 0 0 0 0 0 0 0 0 0 0 0 0 0 0 0 1 1 2 2 1 0 0 0 0 0 0 0 0 0
0 0 0 0 0 0 0 0 0 0 0 0 0 0 0 0 0 0 0 0 0 0 0 0 0 0 0 0 0 0 0 0 1 1 0 0 0 0 0 0 0 0 0 0
0 0 0 0 0 0 0 0 0 0 0 0 0 0 0 0 0 0 0 0 0 0 0 0 0 0 0 0 0 0 0 0 0 0 0 0 0 0 0 0 0 0 0 0